Weather History for KMNI - October, 2012

Change the Weather History Date:

Saturday, October 27, 2012

  Actual Average (KCKI) Record (KCKI)
Temperature  
Mean Temperature 68 °F -  
Max Temperature 71 °F 73 °F 87 °F (2010)
Min Temperature 66 °F 45 °F 41 °F (2013)
Cooling Degree Days 4    
Growing Degree Days 18 (Base 50)    
Moisture  
Dew Point 60 °F    
Average Humidity 73    
Maximum Humidity 83    
Minimum Humidity 64    
Precipitation  
Precipitation 0.00 in - - ()
Sea Level Pressure  
Sea Level Pressure 29.67 in    
Wind  
Wind Speed 13 mph (North)    
Max Wind Speed 20 mph    
Max Gust Speed 30 mph    
Visibility 10 miles    
Events      
Averages and records for this station are not official NWS values.
T = Trace of Precipitation, MM = Missing Value Source: NWS Daily Summary

Daily Weather History Graph

Daily Weather History Graph

Search for Another Location

Airport or City:

Trip Planner

Search our weather history database for the weather conditions in past years. The results will help you decide how hot, cold, wet, or windy it might be!

Date:

Astronomy

Oct. 27, 2012 Rise Set
Actual Time 7:35 AM EDT 6:33 PM EDT
Civil Twilight 7:10 AM EDT 6:58 PM EDT
Nautical Twilight 6:41 AM EDT 7:27 PM EDT
Astronomical Twilight 6:12 AM EDT 7:56 PM EDT
Moon 5:15 PM EDT (10/27) 5:33 AM EDT (10/27)
Length of Visible Light 11h 48m
Length of Day
10h 57m
Waxing Gibbous, 96% of the Moon is Illuminated
Oct 27
Waxing Gibbous
Oct 29
Full
Nov 6
Last Quarter
Nov 13
New
Nov 20
First Quarter

Hourly Weather History & Observations

Time (EDT) Temp. Dew Point Humidity Pressure Visibility Wind Dir Wind Speed Gust Speed Precip Events Conditions
12:35 AM 69.8 °F 62.6 °F 78% 29.81 in 10.0 mi NNE 9.2 mph 18.4 mph N/A   Mostly Cloudy
12:55 AM 69.8 °F 62.6 °F 78% 29.80 in 10.0 mi North 9.2 mph - N/A   Mostly Cloudy
1:15 AM 69.8 °F 62.6 °F 78% 29.79 in 10.0 mi North 11.5 mph 17.3 mph N/A   Overcast
1:55 AM 68.0 °F 62.6 °F 83% 29.77 in 10.0 mi North 11.5 mph 16.1 mph N/A   Overcast
2:15 AM 68.0 °F 62.6 °F 83% 29.77 in 10.0 mi North 8.1 mph 16.1 mph N/A   Overcast
2:35 AM 68.0 °F 62.6 °F 83% 29.76 in 10.0 mi North 12.7 mph 18.4 mph N/A   Overcast
2:55 AM 68.0 °F 62.6 °F 83% 29.75 in 10.0 mi North 9.2 mph 17.3 mph N/A   Overcast
3:15 AM 68.0 °F 62.6 °F 83% 29.73 in 10.0 mi North 11.5 mph - N/A   Overcast
3:35 AM 68.0 °F 62.6 °F 83% 29.72 in 10.0 mi North 11.5 mph - N/A   Overcast
4:15 AM 68.0 °F 62.6 °F 83% 29.71 in 10.0 mi North 13.8 mph 19.6 mph N/A   Overcast
4:35 AM 68.0 °F 62.6 °F 83% 29.71 in 10.0 mi North 12.7 mph - N/A   Overcast
4:55 AM 68.0 °F 62.6 °F 83% 29.70 in 10.0 mi NNE 13.8 mph 18.4 mph N/A   Overcast
5:15 AM 69.8 °F 62.6 °F 78% 29.70 in 10.0 mi North 11.5 mph 19.6 mph N/A   Overcast
5:35 AM 69.8 °F 62.6 °F 78% 29.70 in 10.0 mi North 11.5 mph 19.6 mph N/A   Overcast
5:55 AM 69.8 °F 62.6 °F 78% 29.70 in 10.0 mi North 12.7 mph 19.6 mph N/A   Overcast
6:15 AM 69.8 °F 62.6 °F 78% 29.69 in 10.0 mi North 13.8 mph 20.7 mph N/A   Overcast
6:35 AM 69.8 °F 62.6 °F 78% 29.69 in 10.0 mi North 15.0 mph 23.0 mph N/A   Overcast
6:55 AM 69.8 °F 62.6 °F 78% 29.69 in 10.0 mi North 12.7 mph 23.0 mph N/A   Overcast
7:15 AM 69.8 °F 62.6 °F 78% 29.70 in 10.0 mi North 12.7 mph 17.3 mph N/A   Overcast
7:55 AM 69.8 °F 62.6 °F 78% 29.69 in 10.0 mi North 12.7 mph 20.7 mph N/A   Mostly Cloudy
8:15 AM 68.0 °F 62.6 °F 83% 29.70 in 10.0 mi North 12.7 mph 18.4 mph N/A   Mostly Cloudy
8:35 AM 69.8 °F 62.6 °F 78% 29.70 in 10.0 mi North 12.7 mph 21.9 mph N/A   Overcast
8:55 AM 69.8 °F 62.6 °F 78% 29.71 in 10.0 mi North 16.1 mph 23.0 mph N/A   Overcast
9:15 AM 69.8 °F 62.6 °F 78% 29.71 in 10.0 mi North 15.0 mph 27.6 mph N/A   Scattered Clouds
9:35 AM 69.8 °F 62.6 °F 78% 29.71 in 10.0 mi North 13.8 mph 20.7 mph N/A   Scattered Clouds
9:55 AM 69.8 °F 62.6 °F 78% 29.71 in 10.0 mi North 16.1 mph 21.9 mph N/A   Mostly Cloudy
10:15 AM 69.8 °F 62.6 °F 78% 29.71 in 10.0 mi North 13.8 mph 19.6 mph N/A   Scattered Clouds
10:35 AM 69.8 °F 62.6 °F 78% 29.71 in 10.0 mi North 15.0 mph 18.4 mph N/A   Scattered Clouds
10:55 AM 69.8 °F 62.6 °F 78% 29.70 in 10.0 mi North 15.0 mph 20.7 mph N/A   Scattered Clouds
11:15 AM 69.8 °F 62.6 °F 78% 29.70 in 10.0 mi North 11.5 mph 25.3 mph N/A   Clear
11:35 AM 69.8 °F 62.6 °F 78% 29.69 in 10.0 mi North 11.5 mph 21.9 mph N/A   Clear
12:55 PM 69.8 °F 60.8 °F 73% 29.67 in 10.0 mi North 13.8 mph 20.7 mph N/A   Scattered Clouds
1:15 PM 71.6 °F 60.8 °F 69% 29.66 in 10.0 mi North 16.1 mph 27.6 mph N/A   Scattered Clouds
1:35 PM 71.6 °F 60.8 °F 69% 29.65 in 10.0 mi North 19.6 mph 27.6 mph N/A   Mostly Cloudy
2:15 PM 71.6 °F 60.8 °F 69% 29.64 in 10.0 mi North 13.8 mph 20.7 mph N/A   Overcast
2:35 PM 71.6 °F 60.8 °F 69% 29.63 in 10.0 mi North 16.1 mph 23.0 mph N/A   Overcast
3:15 PM 71.6 °F 59.0 °F 64% 29.62 in 10.0 mi North 13.8 mph 24.2 mph N/A   Overcast
3:35 PM 69.8 °F 60.8 °F 73% 29.62 in 10.0 mi North 13.8 mph 18.4 mph N/A   Overcast
3:55 PM 69.8 °F 59.0 °F 68% 29.62 in 10.0 mi North 13.8 mph 23.0 mph N/A   Overcast
4:15 PM 69.8 °F 59.0 °F 68% 29.62 in 10.0 mi North 11.5 mph 20.7 mph N/A   Overcast
4:35 PM 69.8 °F 59.0 °F 68% 29.61 in 10.0 mi North 15.0 mph 24.2 mph N/A   Overcast
4:55 PM 69.8 °F 59.0 °F 68% 29.61 in 10.0 mi North 16.1 mph 21.9 mph N/A   Overcast
5:15 PM 69.8 °F 59.0 °F 68% 29.60 in 10.0 mi North 19.6 mph 29.9 mph N/A   Overcast
5:35 PM 69.8 °F 59.0 °F 68% 29.60 in 10.0 mi North 16.1 mph 24.2 mph N/A   Overcast
6:15 PM 69.8 °F 59.0 °F 68% 29.61 in 10.0 mi North 11.5 mph 23.0 mph N/A   Mostly Cloudy
6:35 PM 69.8 °F 59.0 °F 68% 29.61 in 10.0 mi North 12.7 mph 26.5 mph N/A   Mostly Cloudy
6:55 PM 69.8 °F 57.2 °F 64% 29.61 in 10.0 mi North 18.4 mph 23.0 mph N/A   Mostly Cloudy
7:15 PM 69.8 °F 57.2 °F 64% 29.61 in 10.0 mi North 12.7 mph 27.6 mph N/A   Scattered Clouds
7:35 PM 69.8 °F 57.2 °F 64% 29.62 in 10.0 mi North 16.1 mph 20.7 mph N/A   Clear
7:55 PM 68.0 °F 57.2 °F 68% 29.62 in 10.0 mi North 16.1 mph 24.2 mph N/A   Clear
8:15 PM 68.0 °F 55.4 °F 64% 29.62 in 10.0 mi North 10.4 mph 26.5 mph N/A   Clear
8:35 PM 68.0 °F 55.4 °F 64% 29.63 in 10.0 mi North 13.8 mph 20.7 mph N/A   Scattered Clouds
8:55 PM 68.0 °F 55.4 °F 64% 29.63 in 10.0 mi North 15.0 mph 23.0 mph N/A   Mostly Cloudy
9:15 PM 68.0 °F 55.4 °F 64% 29.63 in 10.0 mi North 15.0 mph 21.9 mph N/A   Mostly Cloudy
9:35 PM 68.0 °F 55.4 °F 64% 29.63 in 10.0 mi North 15.0 mph 23.0 mph N/A   Overcast
9:55 PM 68.0 °F 55.4 °F 64% 29.63 in 10.0 mi North 15.0 mph 25.3 mph N/A   Overcast
10:15 PM 68.0 °F 55.4 °F 64% 29.63 in 10.0 mi North 16.1 mph 21.9 mph N/A   Overcast
10:35 PM 68.0 °F 55.4 °F 64% 29.64 in 10.0 mi North 16.1 mph 23.0 mph N/A   Mostly Cloudy
10:55 PM 68.0 °F 55.4 °F 64% 29.64 in 10.0 mi North 15.0 mph 20.7 mph N/A   Overcast
11:15 PM 66.2 °F 55.4 °F 68% 29.63 in 10.0 mi North 11.5 mph 24.2 mph N/A   Mostly Cloudy
11:35 PM 66.2 °F 55.4 °F 68% 29.64 in 10.0 mi North 13.8 mph 21.9 mph N/A   Mostly Cloudy